Regional Weather Roundup
Issued by NWS Nashville, TN

Home | Current Version | Previous Version | Text Only | Print | Product List | Glossary On
Versions: 1 2 3 4 5 6 7 8 9 10 11 12 13 14 15 16 17 18 19 20 21 22 23 24 25 26 27 28 29 30 31 32 33 34 35 36 37 38 39 40 41 42 43 44 45 46 47 48 49 50
000
ASUS44 KOHX 021010
RWROHX
MIDDLE TENNESSEE HOURLY WEATHER ROUNDUP
NATIONAL WEATHER SERVICE NASHVILLE TN
500 AM CDT TUE SEP 02 2014

NOTE: "FAIR" INDICATES FEW OR NO CLOUDS BELOW 12,000 FEET WITH
NO SIGNIFICANT WEATHER AND/OR OBSTRUCTIONS TO VISIBILITY.

* THESE REPORTS ARE NOT UNDER NWS QUALITY CONTROL AND MAY NOT
  REPORT WEATHER SUCH AS PRECIPITATION AND FOG.


TNZ005>011-023>034-057-059-062>066-078-080-021100
...NORTHERN MIDDLE TENNESSEE...

CITY           SKY/WX    TMP DP  RH WIND       PRES   REMARKS
CLARKSVILLE    PTCLDY    75  69  81 SW6       30.02R
CROSSVILLE     CLEAR     71  67  87 CALM      30.13S
GALLATIN         N/A     70  69  96 CALM      30.06R
DICKSON        PTCLDY    72  68  88 SW5       30.05R
LEBANON        PTCLDY    74  69  84 S5        30.03R
NASHVILLE      PTCLDY    74  69  85 CALM      30.05R
WEST NASHVILLE   N/A     73  73 100 CALM      30.04R
PORTLAND       PTCLDY    72  68  88 S6        30.04R
SMYRNA         PTCLDY    73  70  91 S6        30.05R
SPARTA         CLEAR     68  66  94 CALM      30.08R
$$
TNZ056-058-060-061-075>077-079-093>097-021100
...SOUTHERN MIDDLE TENNESSEE...

CITY           SKY/WX    TMP DP  RH WIND       PRES   REMARKS
COLUMBIA         N/A     73  73 100 CALM      30.04R
FAYETTEVILLE   CLEAR     72  70  94 S3        30.08R
LEWISBURG      PTCLDY    74  68  81 SW5       30.05R
MCMINNVILLE    CLEAR     68  68 100 CALM      30.08R
MURFREESBORO   PTCLDY    74  69  84 S3        30.05R
SHELBYVILLE    CLEAR     73  72  94 S5        30.07R
TULLAHOMA      CLEAR     70  66  88 CALM      30.09S
WINCHESTER     CLEAR     72  70  94 CALM      30.09R
$$


...KEY TO REMARKS...
VSB - VISIBILITY IN MILES
WCI - WIND CHILL INDEX
HX  - HEAT INDEX




USA.gov is the U.S. government's official web portal to all federal, state and local government web resources and services.